Date String (YYYY-MM-DD hh:mm:ss) UTC,Instrument flags,absolute air pressure of the measurement (hPa),sample flow rate (lpm),inlet stack bypass flow (lpm),air temperature of the measurement (°C),ambient temperature measured by the external sensor (°C),aerosol sample conditioner tube jacket temperature (°C),OPC LED temperature (°C),internal box temperature (°C),relative humidity of the measurement (%),span deviation,mass concentration of particles derived from Lorenz-Mie calculation of OPC scattering (μg/m³),mass concentration of particles derived from Lorenz-Mie calculation of OPC scattering (μg/m³),mass concentration of particles derived from Lorenz-Mie calculation of OPC scattering (μg/m³)
DateTimeUTC,F1_M11,P_M11,Q1_M11,Q2_M11,T1_M11,T2_M11,T3_M11,T4_M11,T5_M11,U1_M11,ZSPAN_M11,X2_M11,X0_M11,X1_M11
2024-03-31 00:00:00,SystemResetWarning,0819.9,5.01,000.00,025.9,025.3,000.0,034.4,027.8,20.1,0002.0,0009.57,0019.43,0008.63
2024-03-31 00:01:00,SystemResetWarning,0819.8,5.00,000.00,025.9,025.3,000.0,034.4,027.8,19.9,0002.0,0009.49,0019.27,0008.61
2024-03-31 00:02:00,SystemResetWarning,0819.9,5.00,000.00,025.9,025.3,000.0,034.4,027.8,19.9,0001.4,0009.51,0018.79,0008.60
2024-03-31 00:03:00,SystemResetWarning,0819.9,4.99,000.00,026.0,025.3,000.0,034.4,027.8,19.9,0000.9,0009.48,0018.22,0008.58
2024-03-31 00:04:00,SystemResetWarning,0819.9,5.00,000.00,026.0,025.3,000.0,034.5,027.8,19.9,0000.7,0009.43,0016.58,0008.56
2024-03-31 00:05:00,SystemResetWarning,0819.9,5.00,000.00,026.0,025.3,000.0,034.5,027.8,19.8,0001.3,0009.35,0016.31,0008.54
2024-03-31 00:06:00,SystemResetWarning,0820.0,5.00,000.00,026.0,025.3,000.0,034.5,027.8,19.7,0001.8,0009.30,0016.45,0008.54
2024-03-31 00:07:00,SystemResetWarning,0820.1,5.01,000.00,026.0,025.3,000.0,034.5,027.8,19.7,0001.8,0009.27,0017.43,0008.55
2024-03-31 00:08:00,SystemResetWarning,0820.3,4.99,000.00,026.0,025.3,000.0,034.5,027.8,19.6,0001.3,0009.25,0017.77,0008.55
2024-03-31 00:09:00,SystemResetWarning,0819.9,5.00,000.00,026.0,025.3,000.0,034.5,027.9,19.6,0000.8,0009.19,0016.65,0008.55
2024-03-31 00:10:00,SystemResetWarning,0820.0,5.00,000.00,026.0,025.3,000.0,034.5,027.9,19.5,0000.3,0009.15,0016.04,0008.53
2024-03-31 00:11:00,SystemResetWarning,0820.1,4.99,000.00,026.0,025.3,000.0,034.5,027.9,19.5,0000.6,0009.13,0015.66,0008.55
2024-03-31 00:12:00,SystemResetWarning,0820.0,5.01,000.00,026.0,025.3,000.0,034.5,027.9,19.4,0000.6,0009.18,0015.78,0008.56
2024-03-31 00:13:00,SystemResetWarning,0820.0,5.01,000.00,026.0,025.3,000.0,034.5,027.9,19.5,0001.1,0009.18,0015.77,0008.56
2024-03-31 00:14:00,SystemResetWarning,0820.1,5.00,000.00,026.0,025.3,000.0,034.5,027.9,19.6,0001.0,0009.15,0017.13,0008.55
2024-03-31 00:15:00,SystemResetWarning,0820.0,5.00,000.00,026.0,025.3,000.0,034.5,027.9,19.5,0001.0,0009.16,0018.85,0008.52
2024-03-31 00:16:00,SystemResetWarning,0820.1,5.00,000.00,026.0,025.3,000.0,034.5,027.9,19.7,0001.2,0009.14,0019.91,0008.50
2024-03-31 00:17:00,SystemResetWarning,0820.0,4.99,000.00,026.0,025.3,000.0,034.5,027.9,20.1,0001.0,0009.13,0019.51,0008.46
2024-03-31 00:18:00,SystemResetWarning,0819.9,4.99,000.00,026.0,025.3,000.0,034.5,027.9,20.1,0000.9,0009.07,0018.90,0008.42
2024-03-31 00:19:00,SystemResetWarning,0819.9,4.99,000.00,026.0,025.3,000.0,034.5,027.9,20.0,0000.8,0009.06,0019.31,0008.40
2024-03-31 00:20:00,SystemResetWarning,0820.0,5.00,000.00,026.1,025.4,000.0,034.6,027.9,19.8,0000.7,0009.06,0018.56,0008.38
2024-03-31 00:21:00,SystemResetWarning,0820.3,5.02,000.00,026.1,025.4,000.0,034.6,027.9,19.7,0000.9,0009.02,0018.43,0008.34
2024-03-31 00:22:00,SystemResetWarning,0820.0,5.01,000.00,026.1,025.4,000.0,034.6,027.9,19.7,0000.8,0008.99,0018.53,0008.28
2024-03-31 00:23:00,SystemResetWarning,0820.1,4.99,000.00,026.1,025.4,000.0,034.6,027.9,19.5,0001.2,0008.96,0018.51,0008.25
2024-03-31 00:24:00,SystemResetWarning,0820.1,4.99,000.00,026.1,025.4,000.0,034.6,027.9,19.5,0001.2,0008.93,0019.03,0008.22
2024-03-31 00:25:00,SystemResetWarning,0820.2,5.00,000.00,026.1,025.4,000.0,034.6,027.9,19.8,0001.1,0008.91,0018.28,0008.20
2024-03-31 00:26:00,SystemResetWarning,0819.8,5.02,000.00,026.1,025.4,000.0,034.6,027.9,19.9,0001.7,0008.88,0017.17,0008.20
2024-03-31 00:27:00,SystemResetWarning,0819.8,5.00,000.00,026.1,025.4,000.0,034.6,027.9,20.1,0001.3,0008.90,0015.78,0008.20
2024-03-31 00:28:00,SystemResetWarning,0819.8,5.00,000.00,026.1,025.4,000.0,034.6,027.9,20.0,0000.9,0008.91,0016.66,0008.22
2024-03-31 00:29:00,SystemResetWarning,0819.8,5.00,000.00,026.1,025.4,000.0,034.6,027.9,19.9,0001.0,0008.97,0016.88,0008.23
2024-03-31 00:30:00,SystemResetWarning,0819.8,5.00,000.00,026.1,025.4,000.0,034.6,027.9,20.0,0001.4,0008.98,0015.63,0008.24
2024-03-31 00:31:00,SystemResetWarning,0820.0,5.00,000.00,026.1,025.4,000.0,034.6,027.9,19.8,0002.1,0008.94,0015.76,0008.22
2024-03-31 00:32:00,SystemResetWarning,0819.7,5.00,000.00,026.1,025.4,000.0,034.6,028.0,19.8,0002.6,0008.88,0015.61,0008.19
2024-03-31 00:33:00,SystemResetWarning,0820.0,5.00,000.00,026.1,025.4,000.0,034.6,028.0,19.6,0002.8,0008.85,0016.08,0008.19
2024-03-31 00:34:00,SystemResetWarning,0820.2,5.00,000.00,026.1,025.4,000.0,034.6,028.0,19.7,0003.0,0008.84,0016.95,0008.18
2024-03-31 00:35:00,SystemResetWarning,0820.1,5.00,000.00,026.1,025.4,000.0,034.6,028.0,19.6,0002.9,0008.81,0016.78,0008.15
2024-03-31 00:36:00,SystemResetWarning,0819.7,5.00,000.00,026.1,025.4,000.0,034.6,028.0,19.7,0002.9,0008.80,0016.22,0008.14
2024-03-31 00:37:00,SystemResetWarning,0820.1,5.01,000.00,026.1,025.4,000.0,034.6,028.0,20.0,0002.1,0008.81,0015.82,0008.11
2024-03-31 00:38:00,SystemResetWarning,0820.0,4.99,000.00,026.1,025.4,000.0,034.7,028.0,20.0,0002.4,0008.80,0016.81,0008.10
2024-03-31 00:39:00,SystemResetWarning,0819.6,5.01,000.00,026.1,025.4,000.0,034.7,028.0,19.9,0002.7,0008.75,0016.71,0008.09
2024-03-31 00:40:00,SystemResetWarning,0819.9,5.00,000.00,026.1,025.4,000.0,034.7,028.0,19.7,0002.7,0008.71,0016.94,0008.09
2024-03-31 00:41:00,SystemResetWarning,0820.2,5.00,000.00,026.1,025.4,000.0,034.7,028.0,19.2,0002.7,0008.71,0017.80,0008.09
2024-03-31 00:42:00,SystemResetWarning,0819.9,5.00,000.00,026.1,025.4,000.0,034.7,028.0,19.0,0001.8,0008.73,0018.02,0008.10
2024-03-31 00:43:00,SystemResetWarning,0819.8,5.00,000.00,026.1,025.4,000.0,034.7,028.0,18.9,0001.4,0008.77,0018.13,0008.11
2024-03-31 00:44:00,SystemResetWarning,0819.8,5.00,000.00,026.1,025.4,000.0,034.7,028.0,19.2,0001.6,0008.78,0017.51,0008.10
2024-03-31 00:45:00,SystemResetWarning,0819.8,5.00,000.00,026.2,025.4,000.0,034.7,028.0,19.3,0001.4,0008.75,0017.33,0008.10
2024-03-31 00:46:00,SystemResetWarning,0819.8,5.00,000.00,026.2,025.4,000.0,034.7,028.0,19.4,0001.0,0008.77,0017.72,0008.11
2024-03-31 00:47:00,SystemResetWarning,0819.8,5.00,000.00,026.2,025.4,000.0,034.7,028.0,19.4,0000.9,0008.80,0018.27,0008.13
2024-03-31 00:48:00,SystemResetWarning,0819.8,5.00,000.00,026.2,025.4,000.0,034.7,028.0,19.4,0001.1,0008.81,0018.99,0008.14
2024-03-31 00:49:00,SystemResetWarning,0819.8,5.00,000.00,026.2,025.4,000.0,034.7,028.0,19.4,0001.0,0008.79,0017.96,0008.13
2024-03-31 00:50:00,SystemResetWarning,0819.8,5.00,000.00,026.2,025.4,000.0,034.7,028.0,19.4,0001.0,0008.81,0016.91,0008.11
2024-03-31 00:51:00,SystemResetWarning,0819.8,5.00,000.00,026.2,025.4,000.0,034.7,028.0,19.4,0000.7,0008.78,0016.47,0008.09
2024-03-31 00:52:00,SystemResetWarning,0819.8,5.00,000.00,026.2,025.4,000.0,034.7,028.0,19.2,0000.4,0008.75,0015.89,0008.06
2024-03-31 00:53:00,SystemResetWarning,0819.8,5.02,000.00,026.2,025.4,000.0,034.7,028.0,19.1,0000.6,0008.73,0015.58,0008.06
2024-03-31 00:54:00,SystemResetWarning,0819.8,5.01,000.00,026.2,025.4,000.0,034.7,028.0,19.1,0000.7,0008.71,0015.61,0008.05
2024-03-31 00:55:00,SystemResetWarning,0819.8,4.99,000.00,026.2,025.4,000.0,034.7,028.0,19.1,0000.4,0008.68,0015.84,0008.02
2024-03-31 00:56:00,SystemResetWarning,0819.8,5.01,000.00,026.2,025.4,000.0,034.7,028.0,19.1,0000.1,0008.67,0015.31,0008.00
2024-03-31 00:57:00,SystemResetWarning,0819.8,5.00,000.00,026.2,025.4,000.0,034.7,028.0,19.2,0000.2,0008.64,0014.77,0007.97
2024-03-31 00:58:00,SystemResetWarning,0819.8,5.00,000.00,026.2,025.4,000.0,034.7,028.0,19.2,0000.4,0008.60,0014.31,0007.94
2024-03-31 00:59:00,SystemResetWarning,0819.7,5.00,000.00,026.2,025.4,000.0,034.7,028.0,19.3,0000.6,0008.59,0013.54,0007.92
